TimePDT,TemperatureF,Dew PointF,Humidity,Sea Level PressureIn,VisibilityMPH,Wind Direction,Wind SpeedMPH,Gust SpeedMPH,PrecipitationIn,Events,Conditions,WindDirDegrees,DateUTC
12:54 AM,64.0,57.0,78,29.86,10.0,South,8.1,-,N/A,,Overcast,170,2013-09-21 07:54:00
1:31 AM,64.4,57.2,77,29.83,10.0,South,6.9,-,N/A,,Overcast,170,2013-09-21 08:31:00
1:54 AM,63.0,57.0,81,29.86,10.0,SSE,8.1,-,N/A,,Overcast,160,2013-09-21 08:54:00
2:34 AM,62.6,57.2,82,29.82,10.0,SSE,8.1,-,N/A,,Overcast,160,2013-09-21 09:34:00
2:54 AM,63.0,57.0,81,29.85,10.0,SSE,4.6,-,N/A,,Overcast,160,2013-09-21 09:54:00
3:01 AM,62.6,57.2,82,29.82,10.0,SSE,4.6,-,N/A,,Overcast,160,2013-09-21 10:01:00
3:54 AM,63.0,57.9,84,29.84,10.0,SSW,10.4,-,N/A,,Overcast,200,2013-09-21 10:54:00
4:03 AM,62.6,57.2,82,29.82,10.0,SSW,8.1,-,N/A,,Overcast,200,2013-09-21 11:03:00
4:32 AM,62.6,59.0,88,29.82,10.0,SSW,9.2,-,N/A,,Overcast,210,2013-09-21 11:32:00
4:54 AM,61.0,59.0,93,29.85,10.0,SW,8.1,-,N/A,,Overcast,220,2013-09-21 11:54:00
5:31 AM,60.8,59.0,94,29.82,10.0,WSW,8.1,-,N/A,,Scattered Clouds,240,2013-09-21 12:31:00
5:54 AM,60.1,59.0,96,29.85,10.0,SW,4.6,-,N/A,,Clear,230,2013-09-21 12:54:00
6:54 AM,59.0,57.0,93,29.85,10.0,WSW,5.8,-,N/A,,Clear,250,2013-09-21 13:54:00
7:54 AM,60.1,57.9,93,29.86,10.0,Calm,Calm,-,N/A,,Mostly Cloudy,0,2013-09-21 14:54:00
8:03 AM,60.8,57.2,88,29.83,10.0,SE,3.5,-,N/A,,Scattered Clouds,130,2013-09-21 15:03:00
8:54 AM,63.0,55.9,78,29.86,10.0,South,9.2,-,N/A,,Scattered Clouds,190,2013-09-21 15:54:00
9:54 AM,64.0,57.0,78,29.86,10.0,SSW,9.2,-,N/A,,Overcast,200,2013-09-21 16:54:00
10:17 AM,64.4,55.4,73,29.83,10.0,SSW,8.1,-,N/A,,Overcast,210,2013-09-21 17:17:00
10:52 AM,62.6,57.2,82,29.84,10.0,SSW,12.7,-,0.00,Rain,Light Rain,210,2013-09-21 17:52:00
10:54 AM,63.0,57.0,81,29.87,10.0,SSW,15.0,-,0.00,Rain,Light Rain,210,2013-09-21 17:54:00
11:46 AM,60.8,60.8,100,29.85,3.0,WSW,6.9,-,N/A,Rain,Rain,250,2013-09-21 18:46:00
11:54 AM,60.1,60.1,100,29.88,2.5,WSW,9.2,-,N/A,Rain,Rain,240,2013-09-21 18:54:00
12:09 PM,59.0,59.0,100,29.86,2.5,SW,10.4,-,0.06,Rain,Rain,220,2013-09-21 19:09:00
12:15 PM,57.2,57.2,100,29.86,4.0,SW,9.2,-,0.07,Rain,Light Rain,220,2013-09-21 19:15:00
12:27 PM,57.2,57.2,100,29.86,1.8,SW,9.2,-,0.10,Rain,Rain,220,2013-09-21 19:27:00
12:34 PM,57.2,57.2,100,29.85,3.0,WSW,11.5,-,0.11,Rain,Light Rain,250,2013-09-21 19:34:00
12:54 PM,57.9,57.9,100,29.88,8.0,SW,8.1,-,0.11,Rain,Light Rain,220,2013-09-21 19:54:00
1:54 PM,59.0,59.0,100,29.88,10.0,WSW,6.9,-,0.03,Rain,Light Rain,240,2013-09-21 20:54:00
2:54 PM,59.0,59.0,100,29.86,8.0,SW,4.6,-,0.00,Rain,Light Rain,220,2013-09-21 21:54:00
3:11 PM,60.8,60.8,100,29.84,10.0,SW,10.4,-,0.00,,Overcast,230,2013-09-21 22:11:00
3:25 PM,62.6,60.8,94,29.84,10.0,WSW,8.1,-,0.00,,Scattered Clouds,250,2013-09-21 22:25:00
3:54 PM,63.0,59.0,87,29.86,10.0,West,11.5,17.3,0.00,,Scattered Clouds,280,2013-09-21 22:54:00
4:54 PM,62.1,55.9,80,29.88,10.0,WNW,16.1,-,N/A,,Partly Cloudy,290,2013-09-21 23:54:00
5:54 PM,61.0,55.9,83,29.87,10.0,West,11.5,-,N/A,,Partly Cloudy,280,2013-09-22 00:54:00
6:54 PM,59.0,55.0,87,29.88,10.0,West,11.5,-,N/A,,Scattered Clouds,280,2013-09-22 01:54:00
7:54 PM,57.9,55.0,90,29.89,10.0,West,12.7,-,N/A,,Clear,280,2013-09-22 02:54:00
8:54 PM,57.0,55.0,93,29.92,10.0,WNW,10.4,-,N/A,,Clear,290,2013-09-22 03:54:00
9:54 PM,57.0,55.9,96,29.92,10.0,WNW,8.1,-,N/A,,Partly Cloudy,290,2013-09-22 04:54:00
10:54 PM,55.9,55.9,100,29.93,10.0,West,6.9,-,N/A,,Clear,280,2013-09-22 05:54:00
11:54 PM,55.9,55.9,100,29.94,10.0,West,5.8,-,N/A,,Clear,280,2013-09-22 06:54:00